Regional Weather Roundup
Issued by NWS

Home | Current Version | Previous Version | Graphics & Text | Print | Product List | Glossary On
Versions: 1 2 3 4 5 6 7 8 9 10 11 12 13 14 15 16 17 18 19 20 21 22 23 24 25 26 27 28 29 30 31 32 33 34 35 36 37 38 39 40 41 42 43 44 45 46 47 48 49 50
000
ASUS43 KFSD 011410
RWRSD

WEATHER ROUNDUP FOR SOUTH DAKOTA
NATIONAL WEATHER SERVICE SIOUX FALLS SD
900 AM CDT TUE SEP 01 2015

NOTE: "FAIR" INDICATES FEW OR NO CLOUDS BELOW 12,000 FEET WITH NO
SIGNIFICANT WEATHER AND/OR OBSTRUCTIONS TO VISIBILITY.


SDZ001>005-009-010-012>017-011500-
NORTHWEST AND NORTH CENTRAL SOUTH DAKOTA

CITY           SKY/WX    TMP DP  RH WIND       PRES   REMARKS
BUFFALO          N/A     60  57  89 S3        29.83R
FAITH            N/A     64  59  83 E7        29.87F
MOBRIDGE       SUNNY     67  63  87 SE6       29.86S
$$

SDZ012>016-024>037-041>051-057-063-072>074-011500-
SOUTHWEST AND SOUTH CENTRAL SOUTH DAKOTA

CITY           SKY/WX    TMP DP  RH WIND       PRES   REMARKS
RAPID CTY ARPT SUNNY     63  56  78 NW9       29.88S
PIERRE         MOSUNNY   63  61  93 E5        29.87R
CUSTER         SUNNY     62  45  53 SW5       30.03F
ELLSWORTH AFB  SUNNY     63  57  79 N5        29.87S
PHILIP         SUNNY     65  62  90 E7        29.86S
PINE RIDGE     SUNNY     65  54  67 SW5       29.92F
WINNER         LGT RAIN  69  65  86 SW7       29.92R
$$

SDZ004>011-016>023-039-040-011500-
NORTHEAST SOUTH DAKOTA

CITY           SKY/WX    TMP DP  RH WIND       PRES   REMARKS
ABERDEEN       SUNNY     68  63  84 E7        29.88S
WATERTOWN      PTSUNNY   70  63  78 E7        29.90F
BROOKINGS      CLOUDY    72  66  83 E7        29.93R
SISSETON         N/A     69  64  84 S3        29.89S
$$

SDZ017-020-022-023-036>040-048>070-011500-
SOUTHEAST SOUTH DAKOTA

CITY           SKY/WX    TMP DP  RH WIND       PRES   REMARKS
SIOUX FALLS    CLOUDY    72  67  84 CALM      29.90R
HURON          PTSUNNY   67  65  93 E3        29.86S FOG
CHAMBERLAIN    PTSUNNY   65  64  97 E5        29.89F
MITCHELL       CLOUDY    68  66  93 S8        29.88S
YANKTON        CLOUDY    68  66  94 E3        29.87R
$$

ABBREVIATIONS USED IN REMARKS
   TC - TEMPERATURE IN CELSIUS
  WCI - WIND CHILL INDEX
   HX - HEAT INDEX
  VSB - VISIBILITY




USA.gov is the U.S. government's official web portal to all federal, state and local government web resources and services.